Overview Statistics Trail Chart Weather Telemetry Raw packets
 

This is the latest recevied weather packets stored in our database for station/object ZL1CTS-13. If no packets are shown the sender has not sent any weather packets the latest 10 day(s).

<< 12 13 14 15 16 17 18 >>
Time Temp. Humidity Pressure Rain* Wind** Luminosity Snow
1788580204 15.56° C 78% 1007.8 hPa 0 mm - - -
1788579907 15.56° C 75% 1007.8 hPa 0 mm - - -
1788579907 15.56° C 75% 1007.9 hPa 0 mm - - -
1788579604 16.11° C 72% 1007.9 hPa 0 mm - - -
1788579305 17.22° C 70% 1007.7 hPa 0 mm - - -
1788579004 17.78° C 71% 1007.9 hPa 0 mm - - -
1788579004 17.78° C 71% 1007.9 hPa 0 mm - - -
1788578705 17.22° C 72% 1008 hPa 0 mm - - -
1788578404 16.67° C 76% 1008 hPa 0 mm - - -
1788578105 16.67° C 71% 1008.2 hPa 0 mm - - -
1788578105 16.11° C 72% 1008.2 hPa 0 mm - - -
1788577804 17.78° C 70% 1008 hPa 0 mm - - -
1788577504 17.78° C 71% 1007.9 hPa 0 mm - - -
1788577204 17.78° C 71% 1008 hPa 0 mm - - -
1788577203 17.78° C 71% 1008 hPa 0 mm - - -
1788576904 17.22° C 70% 1008 hPa 0 mm - - -
1788576604 17.78° C 70% 1008 hPa 0 mm - - -
1788576305 17.22° C 71% 1008.1 hPa 0 mm - - -
1788576305 17.22° C 71% 1008.1 hPa 0 mm - - -
1788576004 17.22° C 71% 1008 hPa 0 mm - - -
1788575705 17.22° C 72% 1008 hPa 0 mm - - -
1788575404 17.78° C 74% 1007.9 hPa 0 mm - - -
1788575404 17.78° C 74% 1007.9 hPa 0 mm - - -
1788575104 17.78° C 74% 1008 hPa 0 mm - - -
1788574803 17.22° C 72% 1007.9 hPa 0 mm - - -

* Rain latest hour (hover to see other rain measurements)
** Current wind speed in m/s (hover to see current wind gust speed)